Regional Weather Roundup
Issued by NWS

Home | Current Version | Previous Version | Text Only | Print | Product List | Glossary Off
Versions: 1 2 3 4 5 6 7 8 9 10 11 12 13 14 15 16 17 18 19 20 21 22 23 24 25 26 27 28 29 30 31 32 33 34 35 36 37 38 39 40 41 42 43 44 45 46 47 48 49 50

000
ASUS45 KABQ 171210
RWRNM
NEW MEXICO REGIONAL WEATHER ROUNDUP
NATIONAL WEATHER SERVICE ALBUQUERQUE NM
600 AM MDT THU AUG 17 2017

NOTE: "FAIR" MEANS FEW OR NO CLOUDS BELOW 12,000 FEET AGL WITH NO
       SIGNIFICANT WEATHER OR OBSTRUCTIONS TO VISION.

      THIS PRODUCT IS RELEASED AS TWO VERSIONS.  ONE VERSION NEAR
      THE TOP OF THE HOUR CONTAINING PRELIMINARY DATA FROM ALBUQUERQUE
      AND OTHER STATIONS.  A FINAL VERSION WITH ADDITIONAL DATA IS
      ISSUED ABOUT 10 MINUTES AFTER THE HOUR.

NMZ501-503-504-510>518-171300-
NORTHWEST PLATEAU/NORTHCENTRAL MOUNTAINS

CITY           SKY/WX    TMP DP  RH WIND       PRES   REMARKS
FARMINGTON     FAIR      56  33  42 E8        30.20R
6HR MIN TEMP:  51; 6HR MAX TEMP:  61;

LOS ALAMOS     MOCLDY    64  32  30 S7        30.32R
SANTA FE       FAIR      59  43  55 N6        30.25R
6HR MIN TEMP:  58; 6HR MAX TEMP:  62;

TAOS           MOCLDY    52  38  58 N6        30.34R
ANGEL FIRE     CLOUDY    45  42  88 CALM      30.43R

$$
NMZ402-403-502-505>509-171300-
WESTCENTRAL MOUNTAINS/SOUTHWEST MOUNTAINS

CITY           SKY/WX    TMP DP  RH WIND       PRES   REMARKS
GALLUP         FAIR      47  35  63 NE3       30.29R
6HR MIN TEMP:  47; 6HR MAX TEMP:  56;

GRANTS         FAIR      45  29  53 CALM      30.32R
SILVER CITY    FAIR      56  39  53 N13       30.21R

$$
NMZ407-409-411-412-171300-
SOUTHERN DESERTS

CITY           SKY/WX    TMP DP  RH WIND       PRES   REMARKS
DEMING         FAIR      60  45  57 W7        30.13R
6HR MIN TEMP:  60; 6HR MAX TEMP:  70;

LAS CRUCES     FAIR      62  43  48 CALM      30.13R
HOLLOMAN AFB   FAIR      63  49  60 NW6       30.12R
ALAMOGORDO     FAIR      66  46  48 CALM      30.12R
T OR C         FAIR      70  39  32 NW15      30.14R
6HR MIN TEMP:  67; 6HR MAX TEMP:  76;


$$
NMZ519>523-171300-
CENTRAL VALLEYS/CENTRAL HIGHLANDS

CITY           SKY/WX    TMP DP  RH WIND       PRES   REMARKS
ALBUQUERQUE    FAIR      63  44  50 SE6       30.20R
6HR MIN TEMP:  63; 6HR MAX TEMP:  74;

DOUBLE EAGLE   PTCLDY    57  39  51 NW5       30.24
MORIARTY ARPT  MOCLDY    52  48  86 N3        30.27R
6HR MIN TEMP:  52; 6HR MAX TEMP:  63;

CLINES CORNERS MOCLDY    56  44  64 E7        30.31R
6HR MIN TEMP:  56; 6HR MAX TEMP:  66;

BELEN          FAIR      60  40  48 CALM      30.20R
6HR MIN TEMP:  58; 6HR MAX TEMP:  69;

SOCORRO        FAIR      62  42  46 CALM      30.15S
6HR MIN TEMP:  62; 6HR MAX TEMP:  71;


$$
NMZ524>526-539-540-171300-
SOUTHCENTRAL MOUNTAINS

CITY           SKY/WX    TMP DP  RH WIND       PRES   REMARKS
RUIDOSO        FAIR      55  41  58 N5        30.33R

$$
NMZ527>531-171300-
NORTHEAST HIGHLANDS/NORTHEAST PLAINS

CITY           SKY/WX    TMP DP  RH WIND       PRES   REMARKS
LAS VEGAS      FAIR      52  47  83 NE6       30.32R
6HR MIN TEMP:  52; 6HR MAX TEMP:  61;

RATON          FAIR      55  51  86 N6        30.28S
6HR MIN TEMP:  52; 6HR MAX TEMP:  62;

CLAYTON        FAIR      59  57  93 CALM      30.21R
6HR MIN TEMP:  57; 6HR MAX TEMP:  63;


$$
NMZ532>537-171300-
EASTCENTRAL PLAINS

CITY           SKY/WX    TMP DP  RH WIND       PRES   REMARKS
SANTA ROSA     FAIR      64  55  72 NE7       30.17S
TUCUMCARI      FAIR      63  58  83 N8        30.15R
6HR MIN TEMP:  62; 6HR MAX TEMP:  66;

CANNON AFB     FAIR      64  64 100 E8        30.16R
6HR MIN TEMP:  64; 6HR MAX TEMP:  68;

CLOVIS AIRPORT FAIR      61  61 100 E5        30.16R FOG

$$
NMZ028-029-538-171300-
SOUTHEAST PLAINS

CITY           SKY/WX    TMP DP  RH WIND       PRES   REMARKS
ROSWELL        FAIR      65  57  75 E6        30.09R
6HR MIN TEMP:  65; 6HR MAX TEMP:  76;

ARTESIA        FAIR      68  55  64 NW3       30.09R
CARLSBAD       FAIR      68  66  93 CALM      30.06R
6HR MIN TEMP:  66; 6HR MAX TEMP:  74;

HOBBS          CLEAR     68  66  94 CALM      29.99F


$$




USA.gov is the U.S. government's official web portal to all federal, state and local government web resources and services.